Workout of the Day

« September 7, 2022 »

4 x 6 minutes with rate changes. 2 minutes rest between intervals.

4 x 6 minutes of work with two minutes rest between intervals. Each 6 minute interval is split into 3 minutes then 2 minutes then 1 minute at different stroke rates or cadence. RowErg: 3 minutes at 22, 2 minutes at 24, 1 minute at 28. SkiErg: 3 minutes at 33, 2 minutes at 36, 1 minute at 42. BikeErg: 3 minutes at 78, 2 minutes at 82, 1 minute at 90.

Pos. Name Age Country Result Pace
999 Geunpil Kim 43 KOR 5,062 2:22.2
1002 Brian Hemati 42 USA 5,059 2:22.3
1003 Meredith Breiland 44 USA 5,058 2:22.3
1003 Jerome Kilbride 29 IRL 5,058 2:22.3
1005 John Smigal 58 USA 5,056 2:22.4
1005 R T 31 CAN 5,056 2:22.4
1007 Nicolas Boutinon 52 GBR 5,055 2:22.4
1008 Jason Loeb 50 USA 5,054 2:22.4
1009 Brian Daigle 57 USA 5,053 2:22.4
1010 Bryan Scott 55 GBR 5,051 2:22.5
1011 jim Belcher 55 USA 5,050 2:22.5
1011 Arthur Peterson 49 USA 5,050 2:22.5
1013 Jess DiCarlo 51 USA 5,048 2:22.6
1014 Helle Nielsen 57 DEN 5,047 2:22.6
1015 Steven Ruden 64 USA 5,045 2:22.7
1015 Ian Walsh 37 USA 5,045 2:22.7
1015 Nancy Steele 43 USA 5,045 2:22.7
1018 David Kilburn 45 USA 5,044 2:22.7
1019 Adrian Carpenter 65 GBR 5,043 2:22.7
1020 Mikey Reid 51 GBR 5,042 2:22.8
1021 Grace Rodnitzki 53 ISR 5,041 2:22.8
1022 Franklin Townsend 53 USA 5,040 2:22.8
1023 Dave Watts 83 CAN 5,038 2:22.9
1024 William Nye 44 USA 5,037 2:22.9
1025 Ella Madlen 60 USA 5,036 2:22.9
1025 Dazza B 49 AUS 5,036 2:22.9
1025 SIMON CHAPMAN 58 GBR 5,036 2:22.9
1028 Ryan Hammonds 47 USA 5,035 2:22.9
1029 Samantha Houston 44 GBR 5,033 2:23.0
1029 Helene C Osborne 55 GBR 5,033 2:23.0
1031 john northcutt 60 USA 5,032 2:23.0
1031 Marjolaine DALQUIER 44 FRA 5,032 2:23.0
1033 filippo poschi 45 SUI 5,029 2:23.1
1033 Ben T 37 USA 5,029 2:23.1
1035 Laura Gassner Otting 51 USA 5,027 2:23.2
1035 Cook Jones 39 USA 5,027 2:23.2
1037 Newt Gee 42 USA 5,026 2:23.2
1037 Tom McNiff 56 USA 5,026 2:23.2
1039 John Midgley 52 GBR 5,019 2:23.4
1040 Ramon De Leon 38 USA 5,016 2:23.5
1040 Marco Wege 50 GER 5,016 2:23.5
1040 Douglas Quamme 36 USA 5,016 2:23.5
1043 Myron Smith 73 USA 5,015 2:23.5
1043 Colm Howlin 41 IRL 5,015 2:23.5
1045 Jay Knoll 75 USA 5,014 2:23.5
1045 Casey Young 43 USA 5,014 2:23.5
1047 Songkrant Muneenaem 50 THA 5,013 2:23.6
1048 Tyler Harner 35 USA 5,009 2:23.7
1049 Brian Rennie 41 USA 5,006 2:23.8
1049 Roger Uptegraft 61 USA 5,006 2:23.8